Location: Pardubice
(50.0330°N, 15.7830°E)
Time: 22:43:00
(UTC+01:00)

Vanguard 2 Rocket - Pass Details

Date: 14 October 2024
Orbit: 553 x 3297 km, 32.9° (Epoch: 01 November)

Event Time Altitude Azimuth Distance (km) Brightness Sun altitude
Rises 19:18:29 0° 235° (SW) 3,673 11.0 -12.3°
Reaches altitude 10° 19:24:13 10° 193° (SSW) 2,173 9.0 -13.2°
Maximum altitude 19:24:43 10° 187° (S) 2,124 8.9 -13.3°
Drops below altitude 10° 19:25:12 10° 180° (S) 2,097 8.8 -13.3°
Enters shadow 19:27:51 - 149° (SSE) 2,315 8.7 -13.8°
Sets 19:29:40 0° 133° (SE) 2,757 - -14.1°
